リニア彗星

418P/LINEAR (2021)

English version
Home page
Updated on December 18, 2022

---------------------------------------------------------------------

・ プロフィール

符号 418P/2020 Y5
検出日 2020年12月23日
検出光度 21.7等
検出者 Pan-STARRS 2 telescope (Haleakala)

・ 写真集

・ 軌道要素

Epoch 2022 Aug. 9.0 TT = JDT 2459800.5
T 2021 Oct. 17.63718 TT                                 Rudenko
q   1.7036614            (2000.0)            P               Q
n   0.08596957     Peri.  307.16801     -0.70544137     +0.70166768
a   5.0843981      Node   277.63956     -0.61407316     -0.67557486
e   0.6649237      Incl.    5.79508     -0.35393026     -0.22640908
P  11.5
From 751 observations 2010 Jan. 14-2022 June 23, mean residual 0".6.

・ 光度変化

        m1 = 11.0 + 5 logΔ + 16.0 log r(t + 20)

---------------------------------------------------------------------

軌道要素はM.P.E.C. 2022-M88に掲載されたものです。
光度グラフはComet for Windowsで作成したものです。

---------------------------------------------------------------------

Copyright(C) Seiichi Yoshida (comet@aerith.net). All rights reserved.